Вернуться в каталог

COSMOS 2491 DEB

LostPO
NORAD 57561·DEBRIS·🇷🇺 Russia

Запущен Dec 25, 2013 с Plesetsk Cosmodrome

Loading…

Ближайшие Пролёты (ближайшие 24 часа)

TLE

УстаревшееSource: Space-Track

Эпоха: Jun 20, 2026, 13:49 UTC

1 57561U 13076AY  26171.57625942  .00002272  00000-0  10754-1 0  9999
2 57561  82.7495 116.0949 0071062 176.9891 183.1649 12.73511281144774

Отслеживайте COSMOS 2491 DEB в реальном времени с AllMySat

Download on the App Store